Flag Weather past 2 weeks in Osage City, Kansas, U.S.A.

Now
23 °F

Passing clouds.


Feels Like: 17 °F
Forecast: 21 / 42 °F
Wind: 5 mph from Northeast

Location: Forbes Field

Current Time: Nov 27, 2014 at 6:00:09 AM

Latest Report: Nov 27, 2014 at 4:53 AM


Visibility: 9 mi

Pressure: 30.51 "Hg

Humidity: 81%

Dew point: 18 °F

Location of Osage CityLocation

Historic Weather in Osage City — Graph

°F

Osage City temperature yesterday

Maximum temperature yesterday: 46 °F (at 10:53 AM)
Minimum temperature yesterday: 28 °F (at 11:53 PM)
Average temperature yesterday: 38 °F

Past Weeks' High & Low Weather Summary

 TemperatureHumidityPressure
High59 °F (Nov 22, 1:53 PM)97% (Nov 22, 5:00 AM)30.64 "Hg (Nov 22, 5:00 AM)
Low10 °F (Nov 18, 12:53 AM)27% (Nov 18, 2:53 PM)29.35 "Hg (Nov 23, 1:53 PM)
Average32 °F64%30.16 "Hg
* Reported Nov 12 4:53 AM — Nov 27 4:53 AM, Osage City, Weather by CustomWeather, © 2014

Note: Actual official high and low records may vary slightly from our data, if they occured in-between our weather recording intervals... More about our weather records

Advertising

Osage City weather history for previous 24 hours

 ConditionsComfort  
Time TempWeatherWind HumidityBarometerVisibility
4:53 AM
Nov 27
23 °FPassing clouds.5 mph81%30.51 "Hg9 mi
3:53 AM21 °FClear.5 mph81%30.50 "Hg10 mi
2:53 AM24 °FClear.7 mph77%30.51 "Hg10 mi
1:53 AM26 °FOvercast.7 mph74%30.50 "Hg10 mi
12:53 AM28 °FOvercast.10 mph69%30.50 "Hg10 mi
11:53 PM
Nov 26
28 °FOvercast.10 mph69%30.47 "Hg10 mi
10:53 PM29 °FOvercast.14 mph69%30.45 "Hg10 mi
9:53 PM29 °FOvercast.13 mph69%30.42 "Hg10 mi
8:53 PM30 °FOvercast.17 mph66%30.40 "Hg10 mi
7:53 PM31 °FOvercast.18 mph64%30.37 "Hg10 mi
6:53 PM32 °FOvercast.22 mph66%30.33 "Hg10 mi
5:53 PM34 °FOvercast.21 mph64%30.28 "Hg10 mi
4:53 PM35 °FOvercast.22 mph64%30.24 "Hg10 mi
3:53 PM37 °FOvercast.26 mph62%30.20 "Hg10 mi
2:53 PM37 °FOvercast.22 mph62%30.17 "Hg10 mi
1:53 PM39 °FMostly cloudy.22 mph62%30.12 "Hg10 mi
12:53 PM41 °FOvercast.29 mph55%30.09 "Hg10 mi
11:53 AM44 °FPartly sunny.25 mph49%30.07 "Hg10 mi
10:53 AM46 °FScattered clouds.28 mph50%30.05 "Hg10 mi
9:53 AM44 °FBroken clouds.24 mph55%30.03 "Hg10 mi
8:53 AM42 °FOvercast.18 mph65%30.01 "Hg10 mi
7:53 AM39 °FPartly sunny.13 mph73%29.99 "Hg10 mi
6:53 AM39 °FPassing clouds.13 mph73%29.98 "Hg10 mi
Weather by CustomWeather, © 2014

See weather overviewHow to use our weather pages